Weather History for HECA - January, 2014

Change the Weather History Date:

Friday, January 17, 2014

  Actual Average Record
Temperature  
Mean Temperature 58 °F -  
Max Temperature 66 °F 65 °F - ()
Min Temperature 50 °F 49 °F - ()
Degree Days  
Heating Degree Days 7    
Growing Degree Days 8 (Base 50)    
Moisture  
Dew Point 46 °F    
Average Humidity 62    
Maximum Humidity 88    
Minimum Humidity 32    
Precipitation  
Precipitation 0.00 in 0.01 in - ()
Sea Level Pressure  
Sea Level Pressure 30.12 in    
Wind  
Wind Speed 2 mph ()    
Max Wind Speed 10 mph    
Max Gust Speed -    
Visibility 2.6 miles    
Events      
T = Trace of Precipitation, MM = Missing Value Source: Averaged Metar Reports

Daily Weather History Graph

Daily Weather History Graph

Search for Another Location

Airport or City:

Trip Planner

Search our weather history database for the weather conditions in past years. The results will help you decide how hot, cold, wet, or windy it might be!

Date:

Astronomy

Jan. 17, 2014 Rise Set
Actual Time 6:50 AM EET 5:18 PM EET
Civil Twilight 6:25 AM EET 5:43 PM EET
Nautical Twilight 5:55 AM EET 6:13 PM EET
Astronomical Twilight 5:26 AM EET 6:42 PM EET
Moon 6:36 PM EET (1/17) 7:15 AM EET (1/17)
Length of Visible Light 11h 18m
Length of Day
10h 27m
Full, 99% of the Moon is Illuminated
Jan 17
Full
Jan 24
Last Quarter
Jan 30
New
Feb 6
First Quarter
Feb 15
Full

Hourly Weather History & Observations

Time (EET) Temp. Dew Point Humidity Pressure Visibility Wind Dir Wind Speed Gust Speed Precip Events Conditions
12:00 AM 59.0 °F 35.6 °F 42% 30.01 in 3.7 mi Calm Calm - N/A   Unknown
12:30 AM 57.2 °F 33.8 °F 41% 30.01 in 2.5 mi Calm Calm - N/A   Haze
1:00 AM 57.2 °F 33.8 °F 41% 30.01 in 2.5 mi Calm Calm - N/A   Haze
1:30 AM 55.4 °F 33.8 °F 44% 30.01 in 2.5 mi Calm Calm - N/A   Haze
2:00 AM 56 °F 35 °F 32% 30.04 in 2 mi Calm Calm - -   Haze
2:00 AM 55.4 °F 35.6 °F 47% 30.04 in 1.9 mi Calm Calm - N/A   Haze
2:30 AM 53.6 °F 33.8 °F 47% 30.04 in 1.9 mi Calm Calm - N/A   Haze
3:00 AM 55.4 °F 37.4 °F 51% 30.04 in 1.9 mi Calm Calm - N/A   Haze
3:30 AM 53.6 °F 35.6 °F 51% 30.04 in 1.9 mi Calm Calm - N/A   Haze
4:00 AM 51.8 °F 35.6 °F 54% 30.04 in 1.9 mi Calm Calm - N/A   Haze
4:30 AM 53.6 °F 37.4 °F 54% 30.04 in 1.9 mi Calm Calm - N/A   Haze
5:00 AM 53 °F 37 °F 42% 30.06 in 2 mi Calm Calm - -   Haze
5:00 AM 53.6 °F 37.4 °F 54% 30.04 in 1.9 mi Calm Calm - N/A   Haze
5:30 AM 51.8 °F 35.6 °F 54% 30.06 in 1.9 mi Calm Calm - N/A   Haze
6:00 AM 51.8 °F 35.6 °F 54% 30.06 in 1.2 mi Calm Calm - N/A   Haze
6:30 AM 51.8 °F 39.2 °F 62% 30.09 in 1.2 mi NNW 4.6 mph - N/A   Haze
7:00 AM 50.0 °F 41.0 °F 71% 30.09 in 0.6 mi Calm Calm - N/A   Haze
7:30 AM 48.2 °F 37.4 °F 66% 30.09 in 0.1 mi Calm Calm - N/A   Haze
8:00 AM 51 °F 44 °F 69% 30.13 in 1 mi Calm Calm - -   Haze
8:00 AM 51.8 °F 44.6 °F 76% 30.09 in 0.6 mi Calm Calm - N/A   Haze
8:30 AM 55.4 °F 46.4 °F 72% 30.12 in 0.9 mi Calm Calm - N/A   Haze
9:00 AM 57.2 °F 50.0 °F 77% 30.12 in 0.9 mi Calm Calm - N/A   Haze
9:30 AM 59.0 °F 50.0 °F 72% 30.15 in 0.9 mi North 3.5 mph - N/A   Haze
10:00 AM 60.8 °F 51.8 °F 72% 30.15 in 1.2 mi North 3.5 mph - N/A   Haze
10:30 AM 62.6 °F 51.8 °F 68% 30.15 in 2.5 mi North 4.6 mph - N/A   Haze
11:00 AM 63 °F 52 °F 59% 30.15 in 4 mi North 6.9 mph - -   Haze
11:00 AM 62.6 °F 51.8 °F 68% 30.15 in 3.7 mi North 6.9 mph - N/A   Unknown
11:30 AM 64.4 °F 51.8 °F 64% 30.12 in 3.7 mi North 8.1 mph - N/A   Unknown
12:30 PM 64.4 °F 51.8 °F 64% 30.12 in 3.7 mi NNW 8.1 mph - N/A   Unknown
1:00 PM 64.4 °F 51.8 °F 64% 30.12 in 3.7 mi NNW 9.2 mph - N/A   Unknown
1:30 PM 64.4 °F 51.8 °F 64% 30.12 in 3.7 mi NNW 9.2 mph - N/A   Unknown
2:00 PM 65 °F 52 °F 53% 30.12 in 6 mi NNW 8.1 mph - -   Partly Cloudy
2:00 PM 66.2 °F 51.8 °F 60% 30.12 in - NNW 8.1 mph - N/A   Clear
2:30 PM 66.2 °F 51.8 °F 60% 30.12 in - NW 8.1 mph - N/A   Clear
3:00 PM 66.2 °F 51.8 °F 60% 30.12 in - NNW 8.1 mph - N/A   Clear
3:30 PM 66.2 °F 51.8 °F 60% 30.12 in - NNW 8.1 mph - N/A   Clear
4:00 PM 66.2 °F 51.8 °F 60% 30.12 in - NNW 6.9 mph - N/A   Clear
4:30 PM 66.2 °F 51.8 °F 60% 30.12 in - North 8.1 mph - N/A   Clear
5:00 PM 65 °F 53 °F 55% 30.14 in 4 mi North 6.9 mph - -   Haze
5:00 PM 66.2 °F 53.6 °F 64% 30.12 in 3.7 mi North 6.9 mph - N/A   Unknown
5:30 PM 64.4 °F 51.8 °F 64% 30.15 in 3.7 mi NNW 9.2 mph - N/A   Unknown
6:00 PM 64.4 °F 50.0 °F 59% 30.15 in 3.7 mi NNW 10.4 mph - N/A   Unknown
6:30 PM 62.6 °F 50.0 °F 63% 30.15 in 3.7 mi North 8.1 mph - N/A   Unknown
7:00 PM 62.6 °F 50.0 °F 63% 30.18 in 3.7 mi North 5.8 mph - N/A   Unknown
7:30 PM 62.6 °F 50.0 °F 63% 30.18 in 3.7 mi North 5.8 mph - N/A   Unknown
8:00 PM 61 °F 52 °F 63% 30.14 in 4 mi North 5.8 mph - -   Haze
8:00 PM 60.8 °F 51.8 °F 72% 30.18 in 3.7 mi North 5.8 mph - N/A   Unknown
8:30 PM 60.8 °F 51.8 °F 72% 30.18 in 3.7 mi North 5.8 mph - N/A   Unknown
9:00 PM 59.0 °F 53.6 °F 82% 30.21 in 3.7 mi North 5.8 mph - N/A   Unknown
9:30 PM 59.0 °F 53.6 °F 82% 30.21 in 3.7 mi North 5.8 mph - N/A   Unknown
10:00 PM 59.0 °F 53.6 °F 82% 30.21 in 3.7 mi North 5.8 mph - N/A   Unknown
10:30 PM 59.0 °F 53.6 °F 82% 30.21 in 2.5 mi North 3.5 mph - N/A   Mist
11:00 PM 58 °F 53 °F 79% 30.24 in 2 mi North 2.3 mph - -   Mist
11:00 PM 57.2 °F 53.6 °F 88% 30.21 in 1.9 mi North 2.3 mph - N/A   Mist
11:30 PM 57.2 °F 53.6 °F 88% 30.21 in 1.9 mi North 2.3 mph - N/A   Mist